Date String (YYYY-MM-DD hh:mm:ss) UTC,Instrument flags,Ambient pressure (hPa),Sample flow (lpm),Bypass flow (lpm),Sample temperature (°C),Ambient temperature (°C),ASC tube jacket temperature (°C),LED temperature (°C),Box temperature (°C),Sample RH (%),Span deviation,Mass concentration (μg/m³),Mass concentration (μg/m³),Mass concentration (μg/m³)
DateTimeUTC,F1_M11,P_M11,Q1_M11,Q2_M11,T1_M11,T2_M11,T3_M11,T4_M11,T5_M11,U1_M11,ZSPAN_M11,X0_M11,X2_M11,X1_M11
2022-09-06 19:00:00,,0831.7,5.00,0.00,29.6,26.8,00.0,38.2,31.4,15.5,0003.2,0031.93,0021.42,0020.20
2022-09-06 19:01:00,,0831.7,5.00,0.00,29.6,27.0,00.0,38.2,31.4,15.6,0003.5,0031.56,0021.56,0020.31
2022-09-06 19:02:00,,0831.7,5.01,0.00,29.5,27.3,00.0,38.1,31.3,15.6,0003.5,0031.88,0021.61,0020.40
2022-09-06 19:03:00,,0831.7,5.00,0.00,29.5,27.5,00.0,38.1,31.3,16.0,0003.8,0032.80,0021.67,0020.49
2022-09-06 19:04:00,,0831.8,5.01,0.00,29.5,27.8,00.0,38.1,31.3,16.3,0004.2,0032.15,0021.67,0020.55
2022-09-06 19:05:00,,0831.7,4.98,0.00,29.6,28.1,00.0,38.1,31.4,15.9,0004.1,0032.71,0021.81,0020.64
2022-09-06 19:06:00,,0831.7,5.01,0.00,29.6,28.3,00.0,38.2,31.5,15.7,0003.8,0032.01,0021.89,0020.72
2022-09-06 19:07:00,,0831.7,5.00,0.00,29.6,27.5,00.0,38.2,31.5,15.8,0003.7,0030.57,0021.94,0020.80
2022-09-06 19:08:00,,0831.7,4.99,0.00,29.6,26.8,00.0,38.2,31.4,15.9,0003.5,0031.43,0021.97,0020.84
2022-09-06 19:09:00,,0831.7,5.01,0.00,29.6,27.0,00.0,38.2,31.4,15.7,0003.4,0031.49,0021.96,0020.85
2022-09-06 19:10:00,,0831.8,4.99,0.00,29.5,27.3,00.0,38.1,31.3,15.4,0003.6,0031.38,0021.98,0020.87
2022-09-06 19:11:00,,0831.7,5.00,0.00,29.5,27.5,00.0,38.1,31.2,15.4,0003.6,0031.57,0021.98,0020.88
2022-09-06 19:12:00,,0831.7,5.02,0.00,29.5,27.8,00.0,38.1,31.3,14.8,0003.1,0032.10,0021.99,0020.88
2022-09-06 19:13:00,,0831.7,4.98,0.00,29.6,28.1,00.0,38.2,31.4,15.3,0003.4,0031.95,0022.04,0020.91
2022-09-06 19:14:00,,0831.7,5.01,0.00,29.6,28.2,00.0,38.2,31.5,16.0,0003.1,0032.12,0022.08,0020.91
2022-09-06 19:15:00,,0831.7,4.99,0.00,29.6,27.5,00.0,38.2,31.5,16.0,0002.9,0033.11,0022.17,0020.96
2022-09-06 19:16:00,,0831.7,5.00,0.00,29.6,26.7,00.0,38.2,31.4,16.1,0002.5,0033.69,0022.14,0020.97
2022-09-06 19:17:00,,0831.6,5.00,0.00,29.5,26.9,00.0,38.1,31.4,16.0,0002.9,0033.91,0022.15,0020.99
2022-09-06 19:18:00,,0831.6,5.01,0.00,29.5,27.2,00.0,38.1,31.3,15.7,0003.2,0033.88,0022.15,0020.98
2022-09-06 19:19:00,,0831.6,5.00,0.00,29.5,27.5,00.0,38.1,31.2,15.6,0003.3,0033.35,0022.15,0020.98
2022-09-06 19:20:00,,0831.6,5.01,0.00,29.5,27.8,00.0,38.1,31.3,15.4,0003.6,0033.22,0022.17,0021.01
2022-09-06 19:21:00,,0831.7,5.00,0.00,29.6,28.0,00.0,38.1,31.4,15.1,0003.6,0033.22,0022.16,0021.03
2022-09-06 19:22:00,,0831.6,4.98,0.00,29.6,28.2,00.0,38.1,31.5,15.5,0003.4,0032.86,0022.17,0021.04
2022-09-06 19:23:00,,0831.6,4.99,0.00,29.6,27.5,00.0,38.2,31.4,16.2,0003.6,0033.02,0022.17,0021.05
2022-09-06 19:24:00,,0831.6,5.01,0.00,29.5,26.7,00.0,38.1,31.3,16.4,0003.2,0033.18,0022.20,0021.02
2022-09-06 19:25:00,,0831.5,5.01,0.00,29.5,26.9,00.0,38.1,31.3,16.1,0003.1,0033.62,0022.21,0021.03
2022-09-06 19:26:00,,0831.5,5.00,0.00,29.5,27.2,00.0,38.1,31.3,16.2,0002.8,0034.20,0022.19,0021.03
2022-09-06 19:27:00,,0831.5,5.00,0.00,29.5,27.5,00.0,38.1,31.2,16.2,0003.0,0033.32,0022.18,0021.03
2022-09-06 19:28:00,,0831.5,5.01,0.00,29.5,27.8,00.0,38.1,31.3,16.0,0002.8,0034.41,0022.20,0021.04
2022-09-06 19:29:00,,0831.5,5.00,0.00,29.5,28.0,00.0,38.1,31.4,16.5,0002.8,0035.32,0022.27,0021.05
2022-09-06 19:30:00,,0831.5,4.99,0.00,29.6,28.2,00.0,38.1,31.4,16.4,0002.8,0035.79,0022.28,0021.03
2022-09-06 19:31:00,,0831.5,5.00,0.00,29.6,27.4,00.0,38.2,31.4,16.5,0002.6,0036.62,0022.33,0021.02
2022-09-06 19:32:00,,0831.5,5.00,0.00,29.5,26.7,00.0,38.1,31.3,16.6,0002.3,0038.29,0022.38,0021.01
2022-09-06 19:33:00,,0831.5,4.99,0.00,29.5,26.9,00.0,38.1,31.4,16.4,0002.6,0039.13,0022.42,0020.98
2022-09-06 19:34:00,,0831.5,5.01,0.00,29.5,27.2,00.0,38.1,31.2,16.5,0002.8,0038.48,0022.39,0020.95
2022-09-06 19:35:00,,0831.5,5.01,0.00,29.5,27.4,00.0,38.1,31.2,16.7,0002.8,0037.88,0022.37,0020.94
2022-09-06 19:36:00,,0831.5,5.00,0.00,29.5,27.7,00.0,38.1,31.3,16.5,0002.8,0037.22,0022.36,0020.94
2022-09-06 19:37:00,,0831.5,5.00,0.00,29.5,28.0,00.0,38.1,31.3,16.6,0003.3,0036.14,0022.39,0020.94
2022-09-06 19:38:00,,0831.5,4.99,0.00,29.6,28.3,00.0,38.1,31.4,16.4,0003.7,0035.68,0022.42,0020.96
2022-09-06 19:39:00,,0831.5,5.01,0.00,29.6,28.1,00.0,38.1,31.5,16.5,0003.5,0035.89,0022.45,0020.93
2022-09-06 19:40:00,,0831.5,4.99,0.00,29.6,27.1,00.0,38.2,31.4,16.8,0003.4,0035.31,0022.41,0020.91
2022-09-06 19:41:00,,0831.5,5.01,0.00,29.5,26.8,00.0,38.1,31.3,16.7,0003.4,0034.95,0022.44,0020.90
2022-09-06 19:42:00,,0831.5,4.98,0.00,29.5,27.1,00.0,38.1,31.3,17.1,0003.7,0034.34,0022.33,0020.84
2022-09-06 19:43:00,,0831.5,5.01,0.00,29.5,27.4,00.0,38.1,31.2,16.9,0003.8,0033.64,0022.24,0020.77
2022-09-06 19:44:00,,0831.5,5.00,0.00,29.5,27.6,00.0,38.1,31.3,16.8,0003.1,0032.71,0022.14,0020.74
2022-09-06 19:45:00,,0831.5,4.99,0.00,29.5,27.9,00.0,38.1,31.3,16.6,0002.9,0034.00,0022.13,0020.74
2022-09-06 19:46:00,,0831.5,5.01,0.00,29.6,28.1,00.0,38.1,31.4,16.5,0003.1,0035.81,0022.06,0020.71
2022-09-06 19:47:00,,0831.5,4.99,0.00,29.6,27.4,00.0,38.1,31.4,16.5,0003.2,0036.62,0022.07,0020.70
2022-09-06 19:48:00,,0831.5,5.00,0.00,29.5,26.6,00.0,38.1,31.3,16.6,0003.3,0037.92,0022.06,0020.71
2022-09-06 19:49:00,,0831.5,5.00,0.00,29.5,26.8,00.0,38.1,31.3,16.6,0003.1,0038.92,0022.07,0020.69
2022-09-06 19:50:00,,0831.5,4.99,0.00,29.5,27.1,00.0,38.1,31.2,16.8,0003.3,0038.30,0022.06,0020.68
2022-09-06 19:51:00,,0831.4,5.01,0.00,29.4,27.4,00.0,38.1,31.2,16.9,0003.2,0038.02,0022.02,0020.65
2022-09-06 19:52:00,,0831.4,5.01,0.00,29.5,27.7,00.0,38.1,31.3,16.8,0003.0,0038.65,0022.02,0020.65
2022-09-06 19:53:00,,0831.3,4.99,0.00,29.5,28.0,00.0,38.1,31.3,16.7,0002.8,0038.63,0022.04,0020.66
2022-09-06 19:54:00,,0831.4,5.02,0.00,29.5,28.2,00.0,38.1,31.4,16.8,0002.6,0038.30,0022.07,0020.68
2022-09-06 19:55:00,,0831.3,5.00,0.00,29.5,27.5,00.0,38.1,31.3,16.7,0003.3,0038.08,0022.08,0020.69
2022-09-06 19:56:00,,0831.3,4.98,0.00,29.5,26.6,00.0,38.1,31.2,16.8,0003.8,0037.11,0022.07,0020.68
2022-09-06 19:57:00,,0831.3,5.01,0.00,29.5,26.8,00.0,38.1,31.3,16.8,0003.8,0035.62,0022.09,0020.67
2022-09-06 19:58:00,,0831.3,5.01,0.00,29.4,27.1,00.0,38.1,31.1,16.9,0003.8,0034.61,0022.04,0020.65
2022-09-06 19:59:00,,0831.3,5.00,0.00,29.4,27.4,00.0,38.0,31.2,16.6,0003.8,0032.67,0022.00,0020.62
